{"data":{"norad_id":56357,"intl_designator":"2023-058AS","name":"STARLINK-5538","alt_names":[],"object_type":"PAYLOAD","status":"ACTIVE","operator":null,"country":"US","launch_date":"2023-04-27","launch_site_code":"AFWTR","launch_vehicle":null,"mission":null,"orbit_class":"UNKNOWN","rcs_meters":null,"size_class":null,"mass_kg":null,"dimensions":null,"purposes":["comms"],"wikipedia_slug":null,"has_3d_model":false,"image_url":null,"decayed_at":null,"tle_current":{"epoch":"2026-09-20T17:01:27.941952Z","epoch_age_seconds":90569,"freshness":"FRESH","line1":"1 56357U 23058AS  26263.70935118 -.00003449  00000+0 -10459-3 0  9990","line2":"2 56357  97.2812 260.4139 0002598  96.7153 263.4386 15.33427392187666","mean_motion":15.33427392,"eccentricity":0.0002598,"inclination_deg":97.2812,"raan_deg":260.4139,"arg_perigee_deg":96.7153,"mean_anomaly_deg":263.4386,"bstar":-0.00010459,"rev_number":18766,"period_min":93.907282960549,"perigee_km":463.81756227903,"apogee_km":467.37356571928,"semimajor_km":6843.7325639992,"source":"CELESTRAK","updated_at":"2026-09-21T09:00:33.428771Z"}}}